Flag for U.S.A. Weather past 2 weeks in Lexington, Virginia, U.S.A.

51 °F


Feels Like: 47 °F
Forecast: 42 / 67 °F
Wind: 13 mph from West

Location: Hot Springs / Ingalls

Current Time: Nov 28, 2015 at 6:55:24 AM

Latest Report: Nov 28, 2015 at 6:15 AM

Visibility: 10 mi

Pressure: 30.28 "Hg

Humidity: 70%

Dew point: 42 °F

Location of LexingtonLocation

Historic Weather in Lexington — Graph


Lexington temperature yesterday

Maximum temperature yesterday: 56 °F (at 2:55 PM)
Minimum temperature yesterday: 46 °F (at 7:15 AM)
Average temperature yesterday: 50 °F

Past Weeks' High & Low Weather Summary

High62 °F (Nov 19, 1:35 PM)100% (Nov 17, 11:55 PM)30.72 "Hg (Nov 17, 11:55 PM)
Low18 °F (Nov 23, 7:15 AM)19% (Nov 20, 2:35 PM)29.84 "Hg (Nov 13, 5:15 AM)
Average42 °F60%30.23 "Hg
* Reported Nov 13 5:15 AM — Nov 28 5:55 AM, Lexington, Weather by CustomWeather, © 2015

Note: Actual official high and low records may vary slightly from our data, if they occured in-between our weather recording intervals... More about our weather records


Lexington weather history for previous 24 hours

Time TempWeatherWind HumidityBarometerVisibility
5:55 AM
Sat, Nov 28
52 °FClear.10 mph68%30.28 "Hg10 mi
5:35 AM51 °FClear.10 mph69%30.27 "Hg10 mi
5:15 AM51 °FPassing clouds.13 mph70%30.28 "Hg10 mi
4:55 AM50 °FPassing clouds.13 mph76%30.28 "Hg10 mi
4:35 AM51 °FClear.12 mph74%30.28 "Hg10 mi
4:10 AM52 °FPassing clouds.12 mph66%30.29 "Hg10 mi
3:55 AM52 °FPassing clouds.9 mph68%30.29 "Hg10 mi
3:35 AM52 °FClear.10 mph70%30.29 "Hg10 mi
3:15 AM52 °FPassing clouds.10 mph70%30.29 "Hg10 mi
2:55 AM52 °FPassing clouds.12 mph72%30.30 "Hg10 mi
1:15 AM52 °FOvercast.9 mph72%30.33 "Hg10 mi
12:55 AM52 °FOvercast.10 mph71%30.33 "Hg10 mi
12:35 AM52 °FOvercast.9 mph71%30.33 "Hg10 mi
11:55 PM
Fri, Nov 27
49 °FPassing clouds.No wind76%30.34 "Hg10 mi
11:35 PM50 °FClear.No wind73%30.35 "Hg10 mi
11:15 PM49 °FClear.No wind75%30.36 "Hg10 mi
10:55 PM52 °FClear.No wind70%30.36 "Hg10 mi
10:15 PM50 °FClear.No wind72%30.37 "Hg10 mi
9:55 PM53 °FClear.No wind66%30.37 "Hg10 mi
9:15 PM52 °FClear.No wind66%30.38 "Hg10 mi
8:55 PM52 °FClear.No wind66%30.38 "Hg10 mi
8:35 PM52 °FClear.No wind69%30.38 "Hg10 mi
8:15 PM50 °FClear.No wind76%30.39 "Hg10 mi
7:55 PM50 °FClear.No wind77%30.39 "Hg10 mi
6:55 PM51 °FClear.6 mph78%30.39 "Hg10 mi
6:15 PM49 °FClear.9 mph79%30.38 "Hg10 mi
5:55 PM50 °FClear.5 mph77%30.38 "Hg10 mi
5:35 PM51 °FClear.No wind74%30.38 "Hg10 mi
5:15 PM51 °FClear.No wind73%30.39 "Hg10 mi
4:55 PM51 °FSunny.No wind73%30.39 "Hg10 mi
4:15 PM53 °FSunny.No wind68%30.40 "Hg10 mi
3:55 PM56 °FSunny.No wind64%30.40 "Hg10 mi
3:35 PM55 °FSunny.No wind66%30.41 "Hg10 mi
3:15 PM56 °FSunny.No wind64%30.42 "Hg10 mi
2:55 PM56 °FSunny.No wind62%30.42 "Hg10 mi
2:35 PM56 °FSunny.No wind62%30.43 "Hg10 mi
2:15 PM54 °FSunny.No wind67%30.44 "Hg10 mi
1:55 PM54 °FSunny.No wind68%30.45 "Hg10 mi
1:35 PM54 °FSunny.No wind69%30.46 "Hg10 mi
1:15 PM54 °FSunny.No wind69%30.47 "Hg10 mi
12:55 PM53 °FSunny.No wind69%30.47 "Hg10 mi
12:35 PM54 °FSunny.No wind68%30.48 "Hg10 mi
12:15 PM54 °FSunny.9 mph66%30.49 "Hg10 mi
11:55 AM53 °FSunny.10 mph69%30.50 "Hg10 mi
11:35 AM53 °FSunny.No wind69%30.51 "Hg10 mi
11:15 AM54 °FSunny.10 mph70%30.52 "Hg10 mi
10:55 AM53 °FSunny.8 mph71%30.52 "Hg10 mi
10:35 AM51 °FSunny.9 mph77%30.53 "Hg10 mi
10:15 AM49 °FSunny.10 mph96%30.53 "Hg10 mi
9:55 AM49 °FSunny.12 mph95%30.53 "Hg10 mi
9:35 AM49 °FSunny.No wind93%30.53 "Hg10 mi
9:15 AM50 °FSunny.8 mph80%30.53 "Hg10 mi
8:55 AM48 °FSunny.3 mph95%30.53 "Hg10 mi
8:35 AM47 °FSunny.7 mph100%30.53 "Hg10 mi
8:15 AM47 °FSunny.6 mph100%30.53 "Hg10 mi
7:55 AM47 °FSunny.3 mph100%30.53 "Hg10 mi
7:35 AM47 °FSunny.No wind100%30.53 "Hg10 mi
7:15 AM46 °FScattered clouds.9 mph100%30.53 "Hg10 mi
6:55 AM46 °FPassing clouds.8 mph100%30.53 "Hg10 mi
6:35 AM46 °FPassing clouds.10 mph100%30.53 "Hg10 mi
6:15 AM47 °FLow clouds.9 mph100%30.53 "Hg10 mi
Weather by CustomWeather, © 2015

See weather overviewHow to use our weather pages